Heat Advisory
until 8:00 PM EDT
| Temperature (°F) | Max | Average | Min |
|---|---|---|---|
| Max Temperature | 86 | 80.39 | 73 |
| Avg Temperature | 78.31 | 72.7 | 66.36 |
| Min Temperature | 73 | 65.94 | 55 |
| Precipitation (in) | Max | Average | Min | Sum |
|---|---|---|---|---|
| Precipitation | 0.89 | 0.09 | 0 | 2.68 |
| Dew Point (°F) | Max | Average | Min |
|---|---|---|---|
| Dew Point | 73.6 | 65.73 | 54.96 |
| Wind (mph) | Max | Average | Min |
|---|---|---|---|
| Wind | 23 | 12.84 | 7 |
| Gust Wind | 46 | 17.71 | 12 |
| Sea Level Pressure (in) | Max | Average | Min |
|---|---|---|---|
| Sea Level Pressure | 29.53 | 29.35 | 29.08 |
| Date | Temp High/Low | Dew Pt High/Low | Humidity | Wind | Max Wind | Wind Gust | Pressure | Precip. | Condition |
|---|---|---|---|---|---|---|---|---|---|
| 8/1/2026 | 79 °F / 70 °F | 70 °F / 64 °F | 78 % | 15 mph | - | 29.17 in | 0.05 in | ||
| 8/2/2026 | 79 °F / 70 °F | 73 °F / 64 °F | 91 % | 21 mph | - | 29.09 in | 0.88 in | ||
| 8/3/2026 | 79 °F / 63 °F | 64 °F / 55 °F | 72 % | 15 mph | - | 29.31 in | 0 in | ||
| 8/4/2026 | 81 °F / 59 °F | 61 °F / 55 °F | 71 % | 7 mph | - | 29.43 in | 0 in | ||
| 8/5/2026 | 86 °F / 63 °F | 68 °F / 59 °F | 75 % | 7 mph | - | 29.41 in | 0 in | ||
| 8/6/2026 | 86 °F / 68 °F | 73 °F / 64 °F | 84 % | 10 mph | - | 29.45 in | 0.14 in | ||
| 8/7/2026 | 84 °F / 70 °F | 73 °F / 68 °F | 88 % | 8 mph | - | 29.44 in | 0.25 in | ||
| 8/8/2026 | 86 °F / 70 °F | 77 °F / 66 °F | 79 % | 16 mph | - | 29.33 in | 0 in | ||
| 8/9/2026 | 82 °F / 61 °F | 72 °F / 61 °F | 76 % | 23 mph | - | 29.39 in | 0.33 in | ||
| 8/10/2026 | 84 °F / 70 °F | 77 °F / 68 °F | 89 % | 16 mph | - | 29.31 in | 0 in | ||
| 8/11/2026 | 77 °F / 66 °F | 77 °F / 66 °F | 93 % | 18 mph | - | 29.3 in | 0.65 in | ||
| 8/12/2026 | 73 °F / 66 °F | 72 °F / 66 °F | 93 % | 16 mph | - | 29.24 in | 0.22 in | ||
| 8/13/2026 | 81 °F / 66 °F | 73 °F / 66 °F | 91 % | 9 mph | - | 29.32 in | 0 in | ||
| 8/14/2026 | 82 °F / 70 °F | 73 °F / 68 °F | 85 % | 9 mph | - | 29.42 in | 0 in | ||
| 8/15/2026 | 81 °F / 68 °F | 73 °F / 64 °F | 84 % | 9 mph | - | 29.48 in | 0 in | ||
| 8/16/2026 | 84 °F / 72 °F | 77 °F / 72 °F | 91 % | 13 mph | - | 29.29 in | 0.01 in | ||
| 8/17/2026 | 79 °F / 70 °F | 73 °F / 61 °F | 83 % | 12 mph | - | 29.3 in | 0 in | ||
| 8/18/2026 | 81 °F / 66 °F | 68 °F / 59 °F | 75 % | 9 mph | - | 29.34 in | 0 in | ||
| 8/19/2026 | 79 °F / 70 °F | 70 °F / 64 °F | 79 % | 10 mph | - | 29.29 in | 0 in | ||
| 8/20/2026 | 79 °F / 66 °F | 72 °F / 55 °F | 78 % | 16 mph | - | 29.36 in | 0 in | ||
| 8/21/2026 | 81 °F / 59 °F | 64 °F / 55 °F | 68 % | 15 mph | - | 29.41 in | 0 in | ||
| 8/22/2026 | 81 °F / 66 °F | 70 °F / 59 °F | 81 % | 13 mph | - | 29.24 in | 0.07 in | ||
| 8/23/2026 | 75 °F / 63 °F | 63 °F / 54 °F | 69 % | 18 mph | - | 29.27 in | 0 in | ||
| 8/24/2026 | 75 °F / 55 °F | 59 °F / 50 °F | 69 % | 15 mph | - | 29.36 in | 0 in | ||
| 8/25/2026 | 77 °F / 57 °F | 64 °F / 55 °F | 77 % | 8 mph | - | 29.44 in | 0 in | ||
| 8/26/2026 | 81 °F / 63 °F | 64 °F / 59 °F | 73 % | 13 mph | - | 29.33 in | 0 in | ||
| 8/27/2026 | 79 °F / 66 °F | 68 °F / 63 °F | 79 % | 9 mph | - | 29.3 in | 0 in | ||
| 8/28/2026 | 77 °F / 63 °F | 66 °F / 57 °F | 71 % | 15 mph | - | 29.48 in | 0 in | ||
| 8/29/2026 | 81 °F / 57 °F | 66 °F / 52 °F | 68 % | 10 mph | - | 29.52 in | 0 in | ||
| 8/30/2026 | 77 °F / 68 °F | 72 °F / 63 °F | 86 % | 13 mph | - | 29.44 in | 0.08 in | ||
| 8/31/2026 | 82 °F / 72 °F | 73 °F / 68 °F | 81 % | 10 mph | - | 29.4 in | 0 in |